Starlink 31896

operational
NORAD ID: 59851 Int'l Des: 2024-097 Owner: SPXS Country: US Constellation: starlink
LEOCIRCULAR

About Starlink 31896

Description loading...

Live Position

Loading 3D Globe...

Upcoming Passes

Altitude History

Altitude vs Time

uPlot chart will show altitude changes over time

Two-Line Element Set

1 59851U 24097S 25352.06542545 -.00008733 00000-0 -30799-3 0 9992
2 59851 43.0030 15.3117 0000540 247.5423 112.5371 15.27604894 89434
Epoch: Dec 18, 2025 • Age: 11 hours

Current Status

Altitude 484.0 km
Velocity 7.63 km/s
Sub-Earth Point 30.37°N, 132.54°E
Launch Date May 23, 2024
Age 1.5 years
Type internet

Technical Details

Classification Payload
Mass 730.00 kg
Dry Mass 700.00 kg
Total Mass 730.00 kg
Length 0.30 m
Diameter 4.10 m
Span 29.00 m
Shape Box + pan
Manufacturer SPXS
Bus Type Starlink V2M
Phase Status In Orbit
Owner/State SPXS/US

Large Constellations

Loading constellations...